EDT,Max TemperatureF,Mean TemperatureF,Min TemperatureF,Max Dew PointF,MeanDew PointF,Min DewpointF,Max Humidity, Mean Humidity, Min Humidity, Max Sea Level PressureIn, Mean Sea Level PressureIn, Min Sea Level PressureIn, Max VisibilityMiles, Mean VisibilityMiles, Min VisibilityMiles, Max Wind SpeedMPH, Mean Wind SpeedMPH, Max Gust SpeedMPH,PrecipitationIn, CloudCover, Events, WindDirDegrees
2012-10-1,87,80,73,75,73,70,94,75,55,29.83,29.79,29.74,10,8,5,12,6,17,0.00,2,Rain,161
2012-10-2,89,82,75,73,72,68,94,74,49,29.94,29.90,29.85,7,4,0,14,7,21,0.00,4,,209
2012-10-3,84,78,73,73,71,68,94,80,66,30.14,30.11,30.08,10,8,7,7,2,,0.00,5,,190
2012-10-4,87,79,71,75,73,70,94,74,62,30.20,30.17,30.12,10,10,7,12,4,,0.00,3,Thunderstorm,99
2012-10-5,84,78,71,75,73,70,94,81,70,30.10,30.06,30.00,10,10,10,12,5,,0.00,4,,66
2012-10-6,82,78,71,73,71,66,94,81,66,29.99,29.95,29.92,10,6,1,13,3,21,0.00,4,Rain-Thunderstorm,20
2012-10-7,84,76,68,73,71,68,100,76,58,30.00,29.98,29.95,10,7,0,9,2,,0.00,3,Fog,93
2012-10-8,84,78,71,73,70,66,89,75,58,30.05,30.01,29.96,10,10,7,12,2,,0.00,1,,160
2012-10-9,77,74,71,72,69,66,94,82,69,30.07,30.05,30.02,10,8,7,12,5,18,0.00,6,,3
2012-10-10,80,72,64,64,63,61,94,67,51,30.14,30.10,30.07,10,9,7,12,5,16,0.00,2,,25
2012-10-11,80,72,64,64,63,61,94,67,54,30.20,30.17,30.14,10,9,7,14,6,18,0.00,3,,28
2012-10-12,80,72,64,66,60,55,94,64,42,30.22,30.17,30.14,10,9,7,12,8,17,0.00,1,,358
2012-10-13,82,78,75,63,61,59,61,53,45,30.23,30.18,30.15,10,10,7,16,12,23,0.00,3,,68
2012-10-14,84,80,77,70,68,64,78,63,51,30.14,30.10,30.06,10,10,7,15,9,23,0.00,3,Rain,92
2012-10-15,82,75,68,73,70,66,94,78,62,29.98,29.91,29.83,7,7,5,7,3,,0.00,4,Rain,78
2012-10-16,80,72,66,64,61,59,94,68,51,29.90,29.88,29.86,10,8,7,12,5,18,0.00,1,,3
2012-10-17,75,70,66,68,66,64,94,83,73,29.93,29.89,29.85,10,8,7,6,1,,0.00,4,,113
2012-10-18,84,76,68,72,68,64,94,78,51,29.91,29.87,29.82,10,7,0,8,4,,0.00,4,Fog,217
2012-10-19,82,73,64,68,67,63,94,75,62,29.88,29.85,29.82,10,10,10,9,4,,0.00,2,,300
2012-10-20,78,70,62,54,48,43,72,44,28,29.96,29.93,29.89,10,10,10,9,7,,0.00,1,,323
2012-10-21,78,66,53,55,53,48,82,58,42,30.06,30.04,30.02,10,10,10,12,5,17,0.00,1,,8
2012-10-22,80,68,57,59,58,55,94,56,48,30.13,30.10,30.07,10,10,10,16,10,21,0.00,3,,63
2012-10-23,82,78,73,63,60,57,61,53,45,30.10,30.07,30.04,10,10,10,15,13,20,0.00,3,,74
2012-10-24,82,78,75,70,65,63,74,62,54,30.07,30.03,29.99,10,9,7,86,30,21,0.00,4,Rain,85
2012-10-25,82,78,75,68,68,66,78,69,58,29.95,29.92,29.88,10,8,4,16,13,23,0.00,5,Rain,65
2012-10-26,80,76,71,68,66,63,78,69,61,29.78,29.72,29.65,10,8,7,22,18,37,0.00,4,,22
2012-10-27,71,70,68,61,60,59,78,71,64,29.61,29.58,29.53,7,7,7,21,16,31,0.00,6,,323
2012-10-28,73,66,60,57,56,55,88,66,53,29.72,29.69,29.66,10,10,10,14,11,23,0.00,0,,281
2012-10-29,66,57,48,41,37,32,71,48,28,29.84,29.78,29.71,10,10,10,17,15,28,0.00,0,,291
2012-10-30,59,47,44,34,30,25,62,49,27,29.87,29.84,29.79,10,10,10,23,11,31,0.00,0,,264
2012-10-31,68,57,46,39,34,25,71,45,21,30.04,30.00,29.94,10,10,10,21,9,25,0.00,0,,271